www.pogodaiklimat.ru

Погода и климат >> Архив погоды >> Вьетнам >> Буонметхуот


ПОГОДА в Буонметхуоте

  • Прогноз погоды в Буонметхуоте
  • Монитор погоды в Буонметхуоте

АРХИВ ПОГОДЫ в Буонметхуоте

Время (UTC), дата Ветер
(напр.,м/с)
 
Видим.   Явления Облачность Т
(С)
Тd
(С)
f
(%)
Тe
(С)
Тes
(С)
Комфортность P
(гПа)
Po
(гПа)
Тmin
(С)
Tmax
(С)
R
(мм)
R24
(мм)
S
(см)
12 18.06 штиль 0 20 км 8/3 600 м
[Cu Sc Cs]
+27.7 +23.4 77 +37 +37 очень
душно
1006.6 954.3 +30.6 0.3
15 18.06 штиль 0 20 км 8/8 600 м
[Cu Sc]
+25.0 +23.0 89 +33 +33 очень
душно
1009.2 956.5
18 18.06 ЮЗ 3 20 км 9/9 600 м
[Cu Sc]
+25.1 +22.8 87 +33 +33 очень
душно
1008.8 956.1
21 18.06 З 2 20 км 9/9 600 м
[Cu Sc]
+24.0 +21.4 85 +30 +30 очень
душно
1009.3 956.2
00 19.06 ЮЗ 2 20 км 9/9 600 м
[Cu Sc]
+23.4 +21.5 89 +32 +32 очень
душно
1009.9 956.8 +23.0
03 19.06 З 2 20 км 9/9 600 м
[Cu Sc]
+26.4 +21.9 76 +34 +36 очень
душно
1010.1 957.4
06 19.06 ЮЗ 2 20 км 5/5 600 м
[Cu med, cong]
+29.2 +22.6 68 +39 +48 очень
душно
1007.5 955.5
09 19.06 СЗ 2 20 км 8/4 600 м
[Cu Sc Cs]
+30.4 +22.6 63 +40 +43 очень
душно
1005.3 953.3
12 19.06 ЮЗ 3 20 км 8/3 600 м
[Cu Sc Cs]
+28.3 +23.6 76 +39 +39 очень
душно
1006.4 954.1 +31.0
15 19.06 СВ 1 20 км 8/3 1000 м
[Sc Cs]
+25.6 +23.5 88 +35 +35 очень
душно
1008.3 955.6
18 19.06 СВ 1 20 км 8/3 1000 м
[Sc Cs]
+24.4 +23.2 93 +33 +33 очень
душно
1008.3 955.2
21 19.06 штиль 0 20 км 9/3 600 м
[Cu Sc Cs]
+23.6 +23.0 96 +31 +31 очень
душно
1008.2 955.1
00 20.06 СВ 1 20 км 8/8 600 м
[Cu Sc]
+25.0 +23.8 93 +34 +35 очень
душно
1009.1 956.4 +23.5
03 20.06 ЮЗ 2 20 км 9/4 600 м
[Cu med, cong Cs]
+29.4 +23.7 71 +40 +49 очень
душно
1008.2 956.2
06 20.06 СЗ 2 20 км 6/6 600 м
[Cu med, cong]
+30.8 +23.1 64 +41 +49 опасность
перегрева
1006.3 954.3
09 20.06 СЗ 2 20 км 8/3 600 м
[Cu med, cong Cs]
+32.4 +23.9 61 +44 +47 опасность
перегрева
1004.5 952.9
12 20.06 СЗ 2 20 км гроза без осадков 8/8 600 м
[Cb cap]
+29.0 +23.8 74 +40 +40 очень
душно
1006.8 954.8 +32.5
15 20.06 ЮЗ 1 20 км в посл. час гроза 8/8 600 м
[Cb cap]
+25.2 +22.0 82 +32 +32 очень
душно
1008.8 956.1
18 20.06 штиль 0 20 км {гроза} 6/6 600 м
[Cu Sc]
+25.0 +22.4 86 +33 +33 очень
душно
1007.7 955.0
21 20.06 В 2 20 км 9/9 600 м
[Cu Sc]
+24.4 +22.6 90 +32 +32 очень
душно
1008.0 954.9
00 21.06 ЮВ 1 20 км 9/9 600 м
[Cu Sc]
+24.9 +22.6 87 +33 +33 очень
душно
1008.3 955.2 +24.1
03 21.06 ЮЗ 3 20 км 6/6 600 м
[Cu med, cong]
+29.3 +24.2 74 +41 +47 опасность
перегрева
1007.3 955.3
06 21.06 СЗ 2 20 км 8/8 600 м
[Cu med, cong]
+31.1 +23.9 66 +43 +47 опасность
перегрева
1005.4 953.8
09 21.06 СЗ 3 20 км 8/8 600 м
[Cb cap]
+32.3 +23.8 61 +44 +45 опасность
перегрева
1003.1 951.7
12 21.06 ЮВ 1 10 км гроза без осадков {ливн. осадки} 8/8 300 м
[Cb cap]
+24.5 +22.4 88 +32 +32 очень
душно
1006.2 953.1 +32.8 15
15 21.06 В 1 10 км зарница {гроза} 8/4 600 м
[Cb cap Cs]
+24.2 +22.4 90 +32 +32 очень
душно
1007.8 954.7
18 21.06 Ю 1 10 км {гроза} ясно +23.9 +22.4 91 +31 +31 очень
душно
1007.4 954.3
21 21.06 В 1 10 км 5/0
[Cs]
+23.2 +22.0 93 +32 +32 очень
душно
1006.4 953.3
00 22.06 штиль 0 20 км 9/3 1000 м
[Sc Cs]
+24.8 +23.0 90 +33 +35 очень
душно
1007.5 954.4 +22.7
03 22.06 штиль 0 20 км 8/4 600 м
[Cu med, cong Cs]
+29.8 +24.0 71 +41 +53 опасность
перегрева
1005.2 953.2
06 22.06 З 2 20 км 9/9 600 м
[Cb cap]
+31.2 +24.5 68 +44 +46 опасность
перегрева
1003.1 951.7
09 22.06 СЗ 2 20 км {ливн. осадки} 9/9 600 м
[Cb cap]
+30.9 +24.0 67 +43 +43 опасность
перегрева
1002.1 950.7
12 22.06 штиль 0 10 км гроза без осадков {ливн. осадки} 9/9 600 м
[Cb cap]
+29.5 +24.2 73 +41 +41 опасность
перегрева
1003.5 951.8 +32.0 2
15 22.06 штиль 0 10 км {гроза} 8/8 600 м
[Cb cap]
+23.7 +21.7 89 +30 +30 очень
душно
1008.6 955.5
18 22.06 штиль 0 10 км {гроза} 8/1 600 м
[Cu hum Cs]
+23.8 +22.0 90 +31 +31 очень
душно
1007.0 953.9
21 22.06 штиль 0 10 км 8/0
[Cs]
+23.1 +21.9 93 +31 +31 очень
душно
1006.7 953.6
00 23.06 штиль 0 20 км 8/1 1000 м
[Sc Cs]
+24.6 +22.6 89 +32 +35 очень
душно
1006.9 953.8 +22.6
03 23.06 Ю 2 20 км 9/1 600 м
[Cu hum Cs]
+29.2 +23.8 73 +40 +53 опасность
солнечного
удара
1006.1 954.1
06 23.06 З 2 20 км 8/3 600 м
[Cu med, cong Cs]
+32.0 +22.2 56 +41 +53 опасность
перегрева
1004.7 953.1
09 23.06 СЗ 5 20 км 9/8 300 м
[Cb cap Cs]
+30.5 +23.2 65 +41 +41 опасность
перегрева
1003.7 952.0
12 23.06 С 1 10 км слаб. дождь 9/9 300 м
[Cb cap]
+24.7 +23.2 91 +33 +33 очень
душно
1007.8 954.7 +33.5 1
15 23.06 СВ 2 10 км {дождь} 4/4 600 м
[Cu Sc]
+23.8 +22.3 91 +31 +31 очень
душно
1008.3 955.2
18 23.06 Ю 1 10 км {дождь} ясно +24.2 +22.1 88 +31 +31 очень
душно
1008.4 955.3 0.5
21 23.06 штиль 0 10 км 1/1 1000 м
[Sc]
+22.7 +21.8 95 +30 +30 очень
душно
1008.9 955.5
00 24.06 Ю 1 20 км 9/3 1000 м
[Sc Cs]
+24.5 +21.8 85 +31 +33 очень
душно
1009.0 955.9 +22.3 0.5
03 24.06 ЮЗ 3 20 км 8/4 600 м
[Cu med, cong Cs]
+29.0 +22.7 69 +38 +46 очень
душно
1008.0 956.0
06 24.06 З 4 20 км 8/8 600 м
[Cu Sc]
+31.4 +22.5 59 +41 +43 опасность
перегрева
1006.9 955.3 0.5
09 24.06 СЗ 3 20 км 9/3 600 м
[Cu med, cong Cs]
+30.8 +23.2 64 +41 +44 опасность
перегрева
1005.9 953.9
12 24.06 ЮЗ 3 20 км {гроза, ливн. осадки} 9/4 600 м
[Cb cap Cs]
+25.3 +21.5 79 +32 +32 очень
душно
1008.6 955.9 +31.7 0.8
15 24.06 Ю 2 20 км 6/3 1000 м
[Sc Cs]
+24.8 +21.1 80 +31 +31 очень
душно
1010.3 957.2
18 24.06 Ю 1 20 км 8/8 600 м
[Cu Sc]
+24.3 +21.7 85 +31 +31 очень
душно
1009.5 956.4
21 24.06 штиль 0 20 км 6/1 1000 м
[Sc Cs]
+22.9 +21.7 93 +31 +31 очень
душно
1009.4 956.0
00 25.06 ЮВ 1 20 км 8/1 1000 м
[Sc Cs]
+24.4 +22.3 88 +32 +34 очень
душно
1010.3 957.2 +22.4
03 25.06 Ю 2 20 км 9/8 600 м
[Cu Sc Ac trans]
+28.8 +22.4 68 +38 +40 очень
душно
1010.6 958.0
06 25.06 ЮЗ 2 20 км {ливн. осадки} 9/5 600 м
[Cu Sc Cs]
+29.6 +23.3 69 +40 +48 очень
душно
1007.9 955.9 2

 

Местоположение метеостанции Буонметхуот (Вьетнам): широта 12.68 долгота 108.08 высота над уровнем моря 537 м.

В архиве по умолчанию представлена погода в Буонметхуоте за последнюю неделю. Архивные данные за месяц целиком и за предыдущие месяцы, начиная с января 2011 года, Вы можете получить, выбрав интересующий диапазон дат из раскрывающегося списка и нажав кнопку "Ввод!".


*Определитесь, кто Вы:
робот инопланетянин человек

Внимание! Время в таблицах - всемирное. Для получения местного времени необходимо прибавить поправку, которая равна 7 ч.

Смотрите также архив погоды в соседних городах и на ближайших метеорологических станциях:

Погода в Нячанге (Вьетнам) (133 км)
Погода в Плейку (Вьетнам) (145 км)
Погода в Куинёне (Вьетнам) (172 км)
Погода в Фантхьете (Вьетнам) (195 км)
Погода в Хабе (Вьетнам) (270 км)
Погода в Аттапы (Лаос) (274 км)
Погода в Куангнгае (Вьетнам) (283 км)
Погода в Секонге (Лаос) (330 км)
Погода в Паксе (Лаос) (369 км)
Погода в Дананге (Вьетнам) (378 км)

Пояснения к столбцам:

Ветер - указаны скорость ветра в м/с - средняя за 10 мин, порывы в срок и между сроками (в фигурных скобках) и направление, откуда дует ветер: С - северный, СВ - северо-восточный, В - восточный, ЮВ - юго-восточный, Ю - южный, ЮЗ - юго-западный, З - западный, СЗ - северо-западный.
Видимость - горизонтальная дальность видимости в метрах или километрах. При видимости от 1 до 10 км при отсутствии осадков обычно наблюдается дымка, при ухудшении видимости до 1 км и менее - туман. В сухую погоду видимость может ухудшаться дымом, пылью или мглою.
Явления - указаны атмосферные явления, наблюдавшиеся в срок или в последний час перед сроком; фигурными скобками обозначены явления, наблюдавшиеся между сроками (за 1-3 часа до срока); квадратными скобками обозначены град или гололедные отложения с указанием их диаметра в мм.
Облачность - указаны через наклонную черту общая и нижняя облачность в баллах и высота нижней границы облаков в метрах; квадратными скобками обозначены формы облаков: Ci - перистые, Cs - перисто-слоистые, Cc - перисто-кучевые, Ac - высококучевые, As - высокослоистые, Sc - слоисто-кучевые, Ns - слоисто-дождевые, Cu - кучевые, Cb - кучево-дождевые. Подробнее классификацию облаков см. в Атласе облаков (PDF).
T - Температура воздуха - температура, измеренная на высоте 2 м над землей.
Td - Температура точки росы - температура, при понижении до которой содержащийся в воздухе водяной пар достигнет насыщения.
f - Относительная влажность воздуха - влажноcть воздуха, измеренная на высоте 2 м над землей.
Te - Эффективная температура - температура, которую ощущает одетый по сезону человек в тени. Характеристика душности погоды. При расчете учитывается влияние влажности воздуха и скорости ветра на теплоощущения человека.
Tes - Эффективная температура на солнце - температура, которую ощущает человек, с поправкой на солнечный нагрев. Характеристика знойности погоды. Зависит от высоты солнца над горизонтом, облачности и скорости ветра. Ночью, в пасмурную погоду, а также при ветре 12 м/с и более поправка равна нулю.
P - Атмосферное давление - приведенное к уровню моря атмосферное давление.
Po - Атмосферное давление - измеренное на уровне метеостанции атмосферное давление.
Tmin - Минимальная температура - минимум температуры воздуха на высоте 2 м над землей.
Tmax - Максимальная температура - максимум температуры воздуха на высоте 2 м над землей.
R - Количество осадков - Количество выпавших осадков за период времени, мм. При наведении курсора мыши на число - период времени, за который выпало указанное количество осадков.
R24 - Количество осадков - Количество выпавших осадков за 24 часа, мм.
S - Снежный покров - Высота снежного покрова, см. При наведении курсора мыши на число - состояние снежного покрова и степень покрытия местности в баллах.